Starlink 31772

operational
NORAD ID: 59430 Int'l Des: 2024-065 Owner: SPXS Country: US Constellation: starlink
LEOCIRCULAR

About Starlink 31772

Description loading...

Live Position

Loading 3D Globe...

Upcoming Passes

Altitude History

Altitude vs Time

uPlot chart will show altitude changes over time

Two-Line Element Set

1 59430U 24065K 25258.58873594 .00000520 00000-0 29676-4 0 9990
2 59430 53.1625 14.7876 0001338 89.8678 270.2476 15.30198254 82128
Epoch: Sep 15, 2025 • Age: 17 hours

Current Status

Altitude 486.9 km
Velocity 7.62 km/s
Sub-Earth Point -34.91°S, 125.62°E
Launch Date Apr 7, 2024
Age 1.4 years
Type internet

Technical Details

Classification Payload
Mass 730.00 kg
Dry Mass 700.00 kg
Total Mass 730.00 kg
Length 0.30 m
Diameter 4.10 m
Span 29.00 m
Shape Box + pan
Manufacturer SPXS
Bus Type Starlink V2M
Phase Status In Orbit
Owner/State SPXS/US

Large Constellations

Loading constellations...